www.pogodaiklimat.ru

Погода и климат >> Архив погоды >> Мексика >> Альтар


ПОГОДА в Альтаре

  • Прогноз погоды в Альтаре
  • Монитор погоды в Альтаре

АРХИВ ПОГОДЫ в Альтаре

Время (UTC), дата Ветер
(напр.,м/с)
 
Видим.   Явления Облачность Т
(С)
Тd
(С)
f
(%)
Тe
(С)
Тes
(С)
Комфортность P
(гПа)
Po
(гПа)
Тmin
(С)
Tmax
(С)
R
(мм)
R24
(мм)
S
(см)
15 14.01 СВ 1 30 км ясно +11.0 +9.4 90 +11 +11 1017.0 970.0
18 14.01 СВ 1 30 км 10/0 2000 м
[Ac trans]
+16.6 +10.7 68 +17 +21 1018.1 971.0 +9.8 +17.0
21 14.01 Ю 2 30 км ясно +23.4 +12.9 52 +26 +33 жарко 1015.7 970.6
00 15.01 ЮВ 2 30 км ясно +22.2 +11.3 50 +24 +25 комфорт 1015.6 970.4 +9.8 +23.9
03 15.01 ЮВ 2 30 км ясно +22.2 +11.3 50 +24 +24 комфорт 1015.6 970.4 +9.8 +23.9
12 15.01 СВ 1 20 км ясно +10.2 +7.7 84 +10 +10 1016.4 969.3 +10.0 +23.9
15 15.01 СВ 1 30 км ясно +10.2 +7.7 84 +10 +10 1018.1 970.1
18 15.01 ЮЗ 1 30 км 6/0 2000 м
[Ac trans]
+18.0 +8.2 53 +19 +24 1018.6 971.3 +9.0 +18.4
21 15.01 Ю 2 30 км 5/0 2000 м
[Ac trans]
+23.2 +9.0 40 +25 +29 комфорт 1015.7 970.6
00 16.01 Ю 2 30 км 5/0 2000 м
[Ac trans]
+23.2 +9.0 40 +25 +25 комфорт 1015.7 970.6
03 16.01 З 1 10 км ясно +17.2 +11.7 70 +18 +18 1017.2 971.2
12 16.01 СВ 1 20 км ясно +9.8 +8.6 92 +9 +9 1019.1 971.8 +9.6 +24.0
15 16.01 СВ 1 30 км ясно +9.6 +8.4 92 +9 +9 1020.4 973.0
18 16.01 СВ 1 30 км 10/0 2000 м
[Ac trans]
+16.0 +12.9 82 +17 +20 1021.4 974.0 +8.5 +16.5
21 16.01 СЗ 2 30 км ясно +23.5 +11.3 46 +25 +32 комфорт 1017.7 972.6
00 17.01 С 2 30 км ясно +23.2 +9.9 43 +25 +25 комфорт 1017.5 972.3 +8.5 +24.1
03 17.01 З 1 10 км ясно +17.8 +11.8 68 +19 +19 1019.2 973.1
12 17.01 СВ 1 20 км ясно +10.6 +9.0 90 +10 +10 1019.1 971.9 +10.5 +24.1
15 17.01 СВ 1 30 км ясно +10.2 +8.9 92 +10 +10 1020.5 973.2
18 17.01 СВ 1 30 км ясно +17.6 +10.3 62 +19 +27 1020.2 972.9 +7.2 +18.0
21 17.01 З 2 30 км ясно +23.5 +9.7 42 +25 +32 комфорт 1017.7 972.6
00 18.01 З 2 30 км ясно +23.8 +8.9 39 +25 +25 комфорт 1016.9 971.8 +7.2 +24.2
03 18.01 З 2 10 км ясно +18.0 +9.7 58 +19 +19 1017.8 971.8
12 18.01 СВ 1 20 км ясно +9.0 +1.2 58 +9 +9 1019.0 971.5 +8.5
15 18.01 В 1 30 км ясно +8.6 +7.8 95 +8 +8 1019.2 971.2
18 18.01 ЮВ 1 30 км ясно +14.4 +8.1 66 +15 +24 1017.5 970.3 +8.5 +15.0
21 18.01 ЮЗ 1 30 км ясно +21.0 +10.2 50 +24 +32 комфорт 1015.0 969.2
00 19.01 СЗ 1 30 км ясно +23.5 +9.7 42 +25 +25 комфорт 1013.0 968.3 +8.5 +24.0
12 19.01 СВ 1 20 км ясно +10.6 +9.0 90 +10 +10 1019.7 972.5 +10.5 +24.0

 

Местоположение метеостанции Альтар (Мексика): широта 30.71 долгота -111.84 высота над уровнем моря 397 м.

В архиве по умолчанию представлена погода в Альтаре за последнюю неделю. Архивные данные за месяц целиком и за предыдущие месяцы, начиная с января 2011 года, Вы можете получить, выбрав интересующий диапазон дат из раскрывающегося списка и нажав кнопку "Ввод!".


*Определитесь, кто Вы:
робот инопланетянин человек

Внимание! Время в таблицах - всемирное. Для получения местного времени необходимо прибавить поправку, которая равна -8 ч.

Смотрите также архив погоды в соседних городах и на ближайших метеорологических станциях:

Погода в Пуэрто-Пеньяско (Мексика) (176 км)
Погода в Эрмосильо (Мексика) (196 км)
Погода в Эрмосильо Магна (Мексика) (201 км)
Погода в Накосари де Гарсия (Мексика) (210 км)
Погода в Сан-Фелипе (Мексика) (285 км)
Погода в Гуаймасе (Мексика) (324 км)
Погода в Эмпальме (Мексика) (326 км)
Погода в Нуэво Леон (Мексика) (362 км)
Погода в Нуэво-Касас-Грандесе (Мексика) (379 км)
Погода в Санта-Розалии (Мексика) (384 км)

Пояснения к столбцам:

Ветер - указаны скорость ветра в м/с - средняя за 10 мин, порывы в срок и между сроками (в фигурных скобках) и направление, откуда дует ветер: С - северный, СВ - северо-восточный, В - восточный, ЮВ - юго-восточный, Ю - южный, ЮЗ - юго-западный, З - западный, СЗ - северо-западный.
Видимость - горизонтальная дальность видимости в метрах или километрах. При видимости от 1 до 10 км при отсутствии осадков обычно наблюдается дымка, при ухудшении видимости до 1 км и менее - туман. В сухую погоду видимость может ухудшаться дымом, пылью или мглою.
Явления - указаны атмосферные явления, наблюдавшиеся в срок или в последний час перед сроком; фигурными скобками обозначены явления, наблюдавшиеся между сроками (за 1-3 часа до срока); квадратными скобками обозначены град или гололедные отложения с указанием их диаметра в мм.
Облачность - указаны через наклонную черту общая и нижняя облачность в баллах и высота нижней границы облаков в метрах; квадратными скобками обозначены формы облаков: Ci - перистые, Cs - перисто-слоистые, Cc - перисто-кучевые, Ac - высококучевые, As - высокослоистые, Sc - слоисто-кучевые, Ns - слоисто-дождевые, Cu - кучевые, Cb - кучево-дождевые. Подробнее классификацию облаков см. в Атласе облаков (PDF).
T - Температура воздуха - температура, измеренная на высоте 2 м над землей.
Td - Температура точки росы - температура, при понижении до которой содержащийся в воздухе водяной пар достигнет насыщения.
f - Относительная влажность воздуха - влажноcть воздуха, измеренная на высоте 2 м над землей.
Te - Эффективная температура - температура, которую ощущает одетый по сезону человек в тени. Характеристика душности погоды. При расчете учитывается влияние влажности воздуха и скорости ветра на теплоощущения человека.
Tes - Эффективная температура на солнце - температура, которую ощущает человек, с поправкой на солнечный нагрев. Характеристика знойности погоды. Зависит от высоты солнца над горизонтом, облачности и скорости ветра. Ночью, в пасмурную погоду, а также при ветре 12 м/с и более поправка равна нулю.
P - Атмосферное давление - приведенное к уровню моря атмосферное давление.
Po - Атмосферное давление - измеренное на уровне метеостанции атмосферное давление.
Tmin - Минимальная температура - минимум температуры воздуха на высоте 2 м над землей.
Tmax - Максимальная температура - максимум температуры воздуха на высоте 2 м над землей.
R - Количество осадков - Количество выпавших осадков за период времени, мм. При наведении курсора мыши на число - период времени, за который выпало указанное количество осадков.
R24 - Количество осадков - Количество выпавших осадков за 24 часа, мм.
S - Снежный покров - Высота снежного покрова, см. При наведении курсора мыши на число - состояние снежного покрова и степень покрытия местности в баллах.